Overview Statistics Trail Chart Weather Telemetry Raw packets
 

This is the latest recevied weather packets stored in our database for station/object SV9FBP-13. If no packets are shown the sender has not sent any weather packets the latest 10 day(s).

<< 24 25 26 27 28 29 30 >>
Time Temp. Humidity Pressure Rain* Wind** Luminosity Snow
1788087518 31.67° C 42% 1009.9 hPa 0 mm - - -
1788086615 31.11° C 42% 1010.1 hPa 0 mm - - -
1788085714 31.67° C 41% 1010.1 hPa 0 mm - - -
1788084812 31.67° C 41% 1009.9 hPa 0 mm - - -
1788083910 31.67° C 36% 1009.9 hPa 0 mm - - -
1788083007 31.67° C 35% 1009.8 hPa 0 mm - - -
1788082106 31.67° C 31% 1010 hPa 0 mm - - -
1788081203 31.67° C 32% 1010 hPa 0 mm - - -
1788080300 31.67° C 32% 1010.2 hPa 0 mm - - -
1788079399 31.67° C 32% 1010.2 hPa 0 mm - - -
1788078502 31.67° C 32% 1010.1 hPa 0 mm - - -
1788077595 31.67° C 33% 1010.2 hPa 0 mm - - -
1788076692 31.67° C 34% 1010.2 hPa 0 mm - - -
1788075791 31.67° C 33% 1010.3 hPa 0 mm - - -
1788074888 31.11° C 32% 1010.5 hPa 0 mm - - -
1788073986 30.56° C 33% 1010.5 hPa 0 mm - - -
1788073084 30.56° C 34% 1010.5 hPa 0 mm - - -
1788072181 30° C 35% 1010.5 hPa 0 mm - - -
1788071280 29.44° C 39% 1010.5 hPa 0 mm - - -
1788070387 29.44° C 40% 1010.4 hPa 0 mm - - -
1788069475 28.89° C 40% 1010.4 hPa 0 mm - - -
1788068572 28.33° C 42% 1010.6 hPa 0 mm - - -
1788067671 27.78° C 44% 1010.6 hPa 0 mm - - -
1788066768 27.78° C 45% 1010.6 hPa 0 mm - - -
1788065867 27.22° C 51% 1010.5 hPa 0 mm - - -

* Rain latest hour (hover to see other rain measurements)
** Current wind speed in m/s (hover to see current wind gust speed)